[[{"header":{"parameterUnit":"m.s-1","parameterCategory":1,"la1":30.2991,"la2":30.254,"lo1":-89.0895,"lo2":-89.0444,"dy":0.0017,"dx":0.0017,"nx":28,"ny":28,"refTime":"2024-03-18T21:00:00:Z","depth":0,"parameterNumber":2,"parameterNumberName":"U-component_of_WINDS"},"data":[0,0,0,0,0,0,0,0,0,0,0,0,0,0,0,0,0,0,0,0,0,0,0,0,0,0,0,0,0,0,0,0,0,0,0,0,0,0,0,0,0,0,0,0,0,0,0,0,0,0,0,0,0,0,0,0,0,0,-3.4547,-3.4547,0,-3.456,-3.456,-3.456,-3.4478,-3.4476,-3.4474,-3.4472,-3.4485,-3.4487,-3.449,0,0,0,0,0,0,0,0,0,0,0,0,0,-3.4454,-3.4456,-3.4547,-3.4547,-3.4548,-3.456,-3.456,-3.456,-3.4479,-3.4476,-3.4473,-3.4471,-3.4484,-3.4487,-3.449,0,0,0,0,0,0,0,0,0,0,0,0,0,-3.4483,-3.4457,-3.4547,-3.4509,-3.4505,-3.456,-3.456,-3.456,-3.4479,-3.4476,-3.4473,-3.4469,-3.4483,-3.4487,-3.4491,-3.4583,0,0,-3.4502,-3.4504,0,0,0,0,0,0,0,0,-3.4482,-3.4487,-3.4514,-3.4511,-3.4508,-3.4514,-3.4532,-3.4568,-3.448,-3.4489,-3.4472,-3.4468,-3.4497,-3.45,-3.451,-3.4583,-3.4584,-3.4502,-3.4505,-3.4506,-3.4507,0,0,0,0,0,0,0,-3.448,-3.4486,-3.4552,-3.4515,-3.4511,-3.4491,-3.4491,-3.4538,-3.4513,-3.4488,-3.4482,-3.4485,-3.4495,-3.4506,-3.4509,-3.4584,-3.4502,-3.4506,-3.4508,-3.4509,-3.4734,-3.4738,0,0,0,0,0,0,-3.4483,-3.4485,-3.4552,-3.4552,-3.4486,-3.4495,-3.4496,-3.4515,-3.4512,-3.4508,-3.4488,-3.4481,-3.4502,-3.4505,-3.451,-3.4618,-3.4506,-3.451,-3.4512,-3.473,-3.4735,-3.4739,0,0,0,0,0,0,-3.4481,-3.449,-3.4551,-3.4517,-3.4523,-3.45,-3.4523,-3.4517,-3.4529,-3.4512,-3.4507,-3.4504,-3.4499,-3.4504,-3.4565,-3.4617,-3.4511,-3.4515,-3.4726,-3.4732,-3.4737,-3.4834,0,0,0,0,0,0,-3.4479,-3.4489,-3.4524,-3.4518,-3.4525,-3.4607,-3.4527,-3.452,-3.4535,-3.4527,-3.4525,-3.4522,-3.4497,-3.456,-3.4569,-3.462,-3.4518,-3.4721,-3.4729,-3.4735,-3.4826,-3.4843,-3.4856,0,0,0,0,0,-3.4476,-3.4551,-3.4526,-3.4535,-3.4568,-3.461,-3.4614,-3.4583,-3.454,-3.4575,-3.4564,-3.4522,-3.461,-3.4567,-3.4576,-3.4629,-3.4718,-3.4727,-3.4735,-3.482,-3.4839,-3.4856,0,0,0,0,0,0,-3.4564,-3.455,-3.4522,-3.4598,-3.4606,-3.4596,-3.4639,-3.4605,-3.4626,-3.4617,-3.4578,-3.4578,-3.4646,-3.4643,-3.4596,-3.4718,-3.4656,-3.4667,-3.4718,-3.4736,-3.4751,-3.475,-3.4521,0,0,0,0,0,-3.4592,-3.4627,-3.4613,-3.4681,-3.4686,-3.4662,-3.4679,-3.4655,-3.4661,-3.4664,-3.4658,-3.4666,-3.4695,-3.4715,-3.4741,-3.4825,-3.4824,-3.4867,-3.4882,-3.4894,-3.4904,-3.4948,-3.4967,-3.4766,-3.4766,-3.4766,0,0,-3.4651,-3.4647,-3.4672,-3.4699,-3.4702,-3.4739,-3.4666,-3.4708,-3.4735,-3.4671,-3.4728,-3.4724,-3.473,-3.4803,-3.4835,-3.4803,-3.4959,-3.4905,-3.4915,-3.4918,-3.4959,-3.4978,-3.4995,-3.4772,-3.4771,-3.477,0,0,-3.4777,-3.4778,-3.4835,-3.484,-3.4845,-3.4829,-3.4843,-3.4838,-3.4833,-3.489,-3.4842,-3.4874,-3.4925,-3.4932,-3.4942,-3.5071,-3.5034,-3.508,-3.5159,-3.5203,-3.5219,-3.5233,-3.5279,-3.5296,-3.509,-3.509,-3.5091,0,-3.485,-3.4904,-3.4869,-3.4915,-3.4928,-3.4871,-3.4929,-3.4935,-3.4949,-3.496,-3.4924,-3.4987,-3.4987,-3.5061,-3.5093,-3.5103,-3.5118,-3.5081,-3.5219,-3.5233,-3.5245,-3.5289,-3.5307,-3.5096,-3.5095,-3.5095,-3.5094,0,-3.4993,-3.5031,-3.5076,-3.5091,-3.511,-3.5161,-3.5134,-3.5157,-3.5131,-3.5119,-3.5177,-3.5175,-3.52,-3.5216,-3.5191,-3.5286,-3.5267,-3.5226,-3.5163,-3.5271,-3.5311,-3.5328,-3.5104,-3.5102,-3.5101,-3.5099,0,0,-3.5175,-3.517,-3.5188,-3.5194,-3.5196,-3.5225,-3.5274,-3.5298,-3.5319,-3.533,-3.5371,-3.5415,-3.5377,-3.5389,-3.5364,-3.5403,-3.5506,-3.5357,-3.5356,-3.5385,-3.5611,-3.5643,-3.5663,-3.548,-3.5483,-3.5486,-3.5611,0,-3.5299,-3.5383,-3.5353,-3.5438,-3.5473,-3.542,-3.5462,-3.5468,-3.5458,-3.5486,-3.5474,-3.5507,-3.5454,-3.5461,-3.5496,-3.5486,-3.5551,-3.5476,-3.5518,-3.552,-3.5519,-3.5684,-3.5717,-3.5835,-3.5626,-3.5629,-3.5631,0,-3.5455,-3.5473,-3.5562,-3.5558,-3.5572,-3.5611,-3.563,-3.5658,-3.5664,-3.5653,-3.5666,-3.5633,-3.5681,-3.5618,-3.5683,-3.5633,-3.5649,-3.5646,-3.565,-3.5653,-3.5583,-3.5692,-3.5872,-3.589,-3.5656,-3.5654,-3.5652,0,-3.558,-3.5626,-3.5686,-3.5693,-3.5689,-3.5718,-3.5718,-3.572,-3.5737,-3.5754,-3.5765,-3.5787,-3.58,-3.5818,-3.5792,-3.5748,-3.5862,-3.5796,-3.5855,-3.5856,-3.5882,-3.5881,-3.6068,-3.5891,-3.5891,-3.5891,-3.589,0,-3.5722,-3.5779,-3.5742,-3.5779,-3.5841,-3.5805,-3.5868,-3.5862,-3.5864,-3.5899,-3.5854,-3.5887,-3.585,-3.5881,-3.586,-3.5918,-3.5924,-3.5917,-3.5911,-3.5922,-3.5923,-3.5932,-3.5923,-3.5895,-3.5894,-3.5893,-3.5893,0,-3.5873,-3.585,-3.5911,-3.5903,-3.5903,-3.5949,-3.5942,-3.5976,-3.5961,-3.6006,-3.6014,-3.5993,-3.6026,-3.6001,-3.6034,-3.6021,-3.6097,-3.6079,-3.6095,-3.6091,-3.6151,-3.6146,-3.6351,-3.6376,-3.6183,-3.6185,-3.6186,0,-3.5965,-3.6007,-3.6004,-3.6024,-3.6027,-3.6059,-3.6076,-3.6043,-3.6062,-3.6072,-3.6105,-3.6134,-3.6155,-3.621,-3.6198,-3.6223,-3.6205,-3.6275,-3.6209,-3.6218,-3.6207,-3.6205,-3.621,-3.6289,-3.6292,-3.6293,-3.6295,0,-3.6132,-3.6118,-3.6144,-3.6166,-3.6187,-3.6203,-3.6215,-3.6234,-3.62,-3.6224,-3.6257,-3.6274,-3.6307,-3.6337,-3.6357,-3.6357,-3.6321,-3.6316,-3.6331,-3.6342,-3.635,-3.6347,-3.6133,-3.6311,-3.631,-3.6309,-3.6308,-3.6307,-3.6256,-3.6291,-3.6295,-3.6325,-3.633,-3.6343,-3.6374,-3.6364,-3.6391,-3.6416,-3.6394,-3.6434,-3.6439,-3.6462,-3.6467,-3.6497,-3.6469,-3.649,-3.6496,-3.6502,-3.6511,-3.6345,-3.6501,-3.65,-3.65,-3.65,-3.6499,0,-3.6421,-3.642,-3.6448,-3.6467,-3.649,-3.6454,-3.6465,-3.6487,-3.6523,-3.653,-3.6553,-3.6591,-3.6619,-3.6609,-3.6634,-3.6661,-3.6645,-3.6669,-3.6667,-3.6667,-3.6535,-3.652,-3.6681,-3.6681,-3.6681,-3.6681,-3.6681,-3.6681,-3.6509,-3.6567,-3.6555,-3.6615,-3.6613,-3.6652,-3.6662,-3.6673,-3.6679,-3.6724,-3.6747,-3.674,-3.674,-3.6765,-3.679,-3.6786,-3.6798,-3.6828,-3.6818,-3.6695,-3.6677,-3.666,-3.6645,-3.683,-3.683,-3.6948,-3.6949,-3.695]},{"header":{"parameterUnit":"m.s-1","parameterCategory":1,"la1":30.2991,"la2":30.254,"lo1":-89.0895,"lo2":-89.0444,"dy":0.0017,"dx":0.0017,"nx":28,"ny":28,"refTime":"2024-03-18T21:00:00:Z","depth":0,"parameterNumber":3,"parameterNumberName":"V-component_of_WINDS"},"data":[0,0,0,0,0,0,0,0,0,0,0,0,0,0,0,0,0,0,0,0,0,0,0,0,0,0,0,0,0,0,0,0,0,0,0,0,0,0,0,0,0,0,0,0,0,0,0,0,0,0,0,0,0,0,0,0,0,0,-4.0348,-4.0349,0,-4.0368,-4.0368,-4.0368,-4.0304,-4.0302,-4.03,-4.0298,-4.0317,-4.0319,-4.0321,0,0,0,0,0,0,0,0,0,0,0,0,0,-4.0253,-4.0255,-4.0348,-4.0349,-4.0349,-4.0368,-4.0368,-4.0369,-4.0304,-4.0302,-4.0299,-4.0297,-4.0316,-4.0319,-4.0322,0,0,0,0,0,0,0,0,0,0,0,0,0,-4.0286,-4.0256,-4.0348,-4.0319,-4.0317,-4.0368,-4.0368,-4.0369,-4.0305,-4.0302,-4.0299,-4.0296,-4.0315,-4.0319,-4.0322,-4.0402,0,0,-4.0333,-4.0334,0,0,0,0,0,0,0,0,-4.0284,-4.0289,-4.0323,-4.0321,-4.0318,-4.033,-4.0341,-4.038,-4.0305,-4.0309,-4.0298,-4.0295,-4.0324,-4.0326,-4.0336,-4.0403,-4.0404,-4.0333,-4.0335,-4.0337,-4.0338,0,0,0,0,0,0,0,-4.0282,-4.0288,-4.0356,-4.0324,-4.0321,-4.0304,-4.0306,-4.0348,-4.0333,-4.0309,-4.0304,-4.0307,-4.0322,-4.0333,-4.0336,-4.0404,-4.0333,-4.0336,-4.0338,-4.0339,-4.0537,-4.054,0,0,0,0,0,0,-4.0283,-4.0286,-4.0355,-4.0357,-4.0294,-4.0308,-4.031,-4.033,-4.0332,-4.0329,-4.031,-4.0304,-4.0329,-4.0332,-4.0337,-4.043,-4.0336,-4.034,-4.0342,-4.0534,-4.0537,-4.0541,0,0,0,0,0,0,-4.0282,-4.029,-4.0355,-4.032,-4.0327,-4.0313,-4.0336,-4.0331,-4.0343,-4.0333,-4.0329,-4.0324,-4.0326,-4.0332,-4.0386,-4.043,-4.0341,-4.0344,-4.053,-4.0535,-4.0539,-4.0619,0,0,0,0,0,0,-4.0279,-4.029,-4.0321,-4.0322,-4.0329,-4.0405,-4.0338,-4.0334,-4.0349,-4.0342,-4.0346,-4.0343,-4.0325,-4.0381,-4.039,-4.0433,-4.0347,-4.0526,-4.0532,-4.0538,-4.0612,-4.0626,-4.0637,0,0,0,0,0,-4.0276,-4.0342,-4.0323,-4.0331,-4.0368,-4.0407,-4.0412,-4.0389,-4.0353,-4.0383,-4.0377,-4.0343,-4.0424,-4.0388,-4.0396,-4.0442,-4.0523,-4.053,-4.0537,-4.0607,-4.0623,-4.0637,0,0,0,0,0,0,-4.0346,-4.0342,-4.032,-4.0389,-4.0399,-4.0396,-4.0434,-4.0407,-4.0428,-4.042,-4.0391,-4.0392,-4.0452,-4.0452,-4.0412,-4.0519,-4.0467,-4.0476,-4.0517,-4.0533,-4.0545,-4.0544,-4.035,0,0,0,0,0,-4.037,-4.0403,-4.0397,-4.0458,-4.0464,-4.0449,-4.0465,-4.0447,-4.0456,-4.046,-4.0457,-4.0467,-4.0495,-4.0513,-4.0538,-4.0612,-4.0611,-4.0647,-4.066,-4.067,-4.0678,-4.0717,-4.0733,-4.0564,-4.0564,-4.0564,0,0,-4.0419,-4.0421,-4.0443,-4.0472,-4.0478,-4.0513,-4.0453,-4.0492,-4.0517,-4.0466,-4.0517,-4.0516,-4.0525,-4.0589,-4.0617,-4.0591,-4.0725,-4.0679,-4.0687,-4.069,-4.0726,-4.0742,-4.0756,-4.0569,-4.0568,-4.0567,0,0,-4.0526,-4.0531,-4.0582,-4.0589,-4.0599,-4.0588,-4.06,-4.0602,-4.0599,-4.065,-4.0612,-4.0641,-4.0689,-4.0697,-4.0708,-4.0817,-4.0787,-4.0826,-4.0892,-4.093,-4.0943,-4.0955,-4.0994,-4.1008,-4.0834,-4.0835,-4.0835,0,-4.0586,-4.0637,-4.0612,-4.0653,-4.0667,-4.0623,-4.0674,-4.0682,-4.0699,-4.0709,-4.068,-4.0739,-4.0742,-4.0807,-4.0834,-4.0844,-4.0857,-4.0826,-4.0943,-4.0955,-4.0965,-4.1002,-4.1017,-4.0839,-4.0839,-4.0838,-4.0838,0,-4.0709,-4.0745,-4.0785,-4.0804,-4.0822,-4.0868,-4.085,-4.0871,-4.0851,-4.0843,-4.0895,-4.0897,-4.0921,-4.0935,-4.0916,-4.0998,-4.0982,-4.0948,-4.0895,-4.0986,-4.1021,-4.1035,-4.0846,-4.0844,-4.0843,-4.0842,0,0,-4.0862,-4.0866,-4.0881,-4.0888,-4.0896,-4.0923,-4.0967,-4.0991,-4.101,-4.1023,-4.1059,-4.11,-4.1069,-4.1081,-4.1062,-4.1096,-4.1182,-4.1058,-4.1057,-4.1081,-4.1273,-4.1298,-4.1315,-4.1162,-4.1165,-4.1167,-4.1272,0,-4.0967,-4.1043,-4.1022,-4.1098,-4.1131,-4.1089,-4.1127,-4.1135,-4.1129,-4.1155,-4.1147,-4.1177,-4.1134,-4.1141,-4.1172,-4.1165,-4.122,-4.1157,-4.1195,-4.1197,-4.1195,-4.1333,-4.136,-4.146,-4.1285,-4.1287,-4.1289,0,-4.11,-4.1119,-4.1199,-4.1201,-4.1214,-4.1249,-4.1269,-4.1295,-4.1303,-4.1296,-4.1309,-4.1283,-4.1326,-4.1273,-4.1331,-4.1288,-4.1302,-4.1301,-4.1305,-4.1308,-4.1249,-4.134,-4.1491,-4.1506,-4.131,-4.1308,-4.1307,0,-4.1204,-4.1249,-4.1303,-4.131,-4.1314,-4.1339,-4.1342,-4.1347,-4.1363,-4.138,-4.139,-4.1412,-4.1425,-4.1442,-4.1422,-4.1386,-4.1484,-4.1429,-4.1479,-4.1479,-4.1502,-4.1501,-4.1657,-4.151,-4.151,-4.151,-4.1509,0,-4.1324,-4.1374,-4.1349,-4.1382,-4.1437,-4.1411,-4.1466,-4.1464,-4.1469,-4.15,-4.1465,-4.1495,-4.1467,-4.1494,-4.1479,-4.153,-4.1535,-4.153,-4.1526,-4.1534,-4.1535,-4.1543,-4.1536,-4.1514,-4.1513,-4.1512,-4.1511,0,-4.1449,-4.1434,-4.149,-4.1488,-4.1489,-4.153,-4.1528,-4.1558,-4.1549,-4.1589,-4.1597,-4.1582,-4.1613,-4.1595,-4.1625,-4.1615,-4.1681,-4.1667,-4.1679,-4.1675,-4.1726,-4.1722,-4.1894,-4.1915,-4.1754,-4.1756,-4.1757,0,-4.1527,-4.1565,-4.1568,-4.1586,-4.1591,-4.1622,-4.1638,-4.1614,-4.1632,-4.1644,-4.1673,-4.17,-4.172,-4.1771,-4.1762,-4.1786,-4.1772,-4.1831,-4.1775,-4.1782,-4.1773,-4.1771,-4.1775,-4.1842,-4.1844,-4.1845,-4.1847,0,-4.1667,-4.1658,-4.1682,-4.1705,-4.1725,-4.1742,-4.1755,-4.1772,-4.1748,-4.177,-4.1801,-4.1817,-4.1848,-4.1876,-4.1896,-4.1897,-4.1868,-4.1864,-4.1877,-4.1886,-4.1891,-4.1889,-4.171,-4.186,-4.1859,-4.1858,-4.1857,-4.1857,-4.1771,-4.1802,-4.1809,-4.1838,-4.1846,-4.1859,-4.1887,-4.1882,-4.1907,-4.1932,-4.1915,-4.1952,-4.1958,-4.1982,-4.1987,-4.2015,-4.1991,-4.201,-4.2014,-4.2019,-4.2027,-4.1887,-4.2018,-4.2018,-4.2017,-4.2017,-4.2017,0,-4.1909,-4.1911,-4.1938,-4.1958,-4.1981,-4.1952,-4.1965,-4.1986,-4.2018,-4.2027,-4.2048,-4.2084,-4.211,-4.2104,-4.2127,-4.2151,-4.2138,-4.2158,-4.2156,-4.2157,-4.2046,-4.2033,-4.2168,-4.2168,-4.2168,-4.2168,-4.2168,-4.2168,-4.1983,-4.2036,-4.2027,-4.2083,-4.2084,-4.212,-4.213,-4.2142,-4.2149,-4.219,-4.2212,-4.2208,-4.2211,-4.2234,-4.2257,-4.2255,-4.2265,-4.229,-4.2283,-4.218,-4.2165,-4.215,-4.2138,-4.2292,-4.2293,-4.2391,-4.2392,-4.2392]}]]